Content
SEND FEEDBACK

Daily
Averages
Monthly
Summary
Philippines

QUEZON CITY, PHILIPPINES


Home > Asia > Philippines
Elevation: 151 feet     Latitude: 14 39N     Longitude: 121 03E

WEATHER
 
SELECT A DAY
Number of Records: 176,357;   Date Range: 7/1/96 - 9/30/14
 
SHARE

PRINT THIS DATA

[ ← Previous Day ]
WEATHER ALMANAC - JULY 1, 2013
[ Next Day → ]
[ °C ]   °F
We're sorry. There is no daily almanac available for Quezon City, Philippines on July 1, 2013.
WEATHER BY HOUR - JULY 1, 2013
[ °C ]   °F
Local TimeTemperatureDewpointHumidityBarometerVisibilityWind DirectionWind SpeedGust SpeedPrecipitationEventsConditions
1:00 AM80.6 °F77.0 °F89 %29.77 in6.2 miEast (80°)3.5 mphMostly Cloudy
2:00 AM80.6 °F77.0 °F89 %29.74 in6.2 miSE (130°)3.5 mphMostly Cloudy
3:00 AM80.6 °F75.2 °F84 %29.74 in6.2 miCalmMostly Cloudy
4:00 AM80.6 °F75.2 °F84 %29.74 in6.2 miVariable1.2 mphMostly Cloudy
5:00 AM80.0 °F77.0 °F86 %29.75 in6.0 miCalmHaze
5:00 AM78.8 °F77.0 °F94 %29.77 in6.2 miEast (80°)1.2 mphScattered Clouds
6:00 AM80.6 °F75.2 °F84 %29.77 in6.2 miEast (100°)3.5 mphScattered Clouds
7:00 AM80.6 °F77.0 °F89 %29.77 in6.2 miENE (70°)4.6 mphScattered Clouds
8:00 AM84.0 °F75.0 °F67 %29.78 in6.0 miEast (100°)8.9 mphHaze
8:00 AM84.2 °F75.2 °F74 %29.77 in6.2 miNorthScattered Clouds
9:00 AM86.0 °F75.2 °F70 %29.77 in6.2 miEast (100°)11.5 mphScattered Clouds
10:00 AM87.8 °F75.2 °F66 %29.80 in6.2 miESE (120°)9.2 mphScattered Clouds
11:00 AM89.0 °F73.0 °F51 %29.80 in6.0 miEast (100°)8.9 mphHaze
11:00 AM89.6 °F75.2 °F62 %29.77 in6.2 miESE (110°)9.2 mphPartly Cloudy
12:00 PM91.4 °F73.4 °F55 %29.77 in6.2 miSE (130°)9.2 mphPartly Cloudy
1:00 PM91.4 °F75.2 °F59 %29.74 in6.2 miSE (130°)11.5 mphPartly Cloudy
2:00 PM93.0 °F76.0 °F48 %29.72 in6.0 miESE (120°)11.2 mphHaze
2:00 PM91.4 °F75.2 °F59 %29.71 in6.2 miESE (120°)10.4 mphPartly Cloudy
3:00 PM91.4 °F77.0 °F63 %29.71 in6.2 miSE (130°)9.2 mphPartly Cloudy
4:00 PM93.2 °F75.2 °F56 %29.71 in6.2 miSE (130°)8.1 mphScattered Clouds
4:15 PM82.4 °F75.2 °F79 %29.74 in5.0 miEast (100°)17.3 mph33.4 mphRain-ThunderstormLight Thunderstorms and Rain
5:00 PM82.0 °F77.0 °F80 %29.67 in6.0 miNorth (10°)2.2 mphRainLight Rain
5:00 PM82.4 °F77.0 °F84 %29.74 in6.2 miEast (90°)3.5 mphScattered Clouds
6:00 PM86.0 °F78.8 °F79 %29.74 in6.2 miSSE (160°)2.3 mphScattered Clouds
7:00 PM84.2 °F77.0 °F79 %29.77 in6.2 miSE (130°)4.6 mphMostly Cloudy
8:00 PM84.0 °F77.0 °F74 %29.80 in6.0 miEast (100°)4.5 mphHaze
8:00 PM80.6 °F80.6 °F100 %29.77 in6.2 miVariable1.2 mphScattered Clouds
9:00 PM84.2 °F77.0 °F79 %29.80 in6.2 miESE (120°)4.6 mphScattered Clouds
10:00 PM84.2 °F77.0 °F79 %29.83 in6.2 miSE (140°)2.3 mphScattered Clouds
11:00 PM83.0 °F78.0 °F79 %29.86 in6.0 miCalmHaze
11:00 PM82.4 °F77.0 °F84 %29.83 in6.2 miCalmPartly Cloudy
Hourly data recorded from RPLL, located miles away from Quezon City, Philippines







STORIES FROM OUR PARTNERS